Orbital Elements at Epoch 2459200.5 (2020-Dec-17.0) TDB
Reference: JPL 24 (heliocentric ecliptic J2000)
Element | Value | Uncertainty (1-sigma) | Units |
e | .08300835035364067 | 4.2436e-08 | |
a | 3.030373329027236 | 1.9132e-08 | au |
q | 2.778827038029015 | 1.292e-07 | au |
i | 2.378646538531757 | 5.3961e-06 | deg |
node | 312.2566424468112 | 0.00010511 | deg |
peri | 130.2404330819844 | 0.0001113 | deg |
M | 85.52066985356113 | 3.4614e-05 | deg |
tp | 2458742.768055280656 (2019-Sep-16.26805528) | 0.00018484 | TDB |
period | 1926.826583340918 5.28 | 1.8248e-05 4.996e-08 | d yr |
n | .1868357033853027 | 1.7694e-09 | deg/d |
Q | 3.281919620025457 | 2.0721e-08 | au |
|
| | Orbit Determination Parameters
Additional Information
|